Regional Weather Roundup
Issued by NWS

Home | Current Version | Previous Version | Text Only | Print | Product List | Glossary On
Versions: 1 2 3 4 5 6 7 8 9 10 11 12 13 14 15 16 17 18 19 20 21 22 23 24 25 26 27 28 29 30 31 32 33 34 35 36 37 38 39 40 41 42 43 44 45 46 47 48 49 50
000
ASUS44 KOUN 252110
RWROK

WEATHER ROUNDUP FOR OKLAHOMA
NATIONAL WEATHER SERVICE NORMAN OK
400 PM CDT SAT MAR 25 2017

NOTE: "FAIR" INDICATES FEW OR NO CLOUDS BELOW 12,000 FEET WITH NO
      SIGNIFICANT WEATHER AND/OR OBSTRUCTIONS TO VISIBILITY.

OKZ001>007-009>012-014-015-017-252200-
NORTHWEST OKLAHOMA AND THE PANHANDLE

CITY           SKY/WX    TMP DP  RH WIND       PRES   REMARKS
GAGE           SUNNY     69  37  30 N9G21     29.90F
GUYMON         SUNNY     67  22  18 MISG      29.92F
ENID/WOODRING  CLOUDY    55  45  67 NW12G18   29.94S
$$

OKZ016-021>023-033>039-044-045-252200-
SOUTHWEST OKLAHOMA

CITY           SKY/WX    TMP DP  RH WIND       PRES   REMARKS
LAWTON/REGL    MOSUNNY   66  43  43 VRB3      29.93F
LAWTON/FT SILL SUNNY     68  46  45 NW8       29.91F
FREDERICK      SUNNY     69  42  37 VRB7G20   29.91F
CLINTON        MOSUNNY   69  42  37 NW9G17    29.92F
HOBART         SUNNY     70  42  36 N12G18    29.93F
ALTUS AFB      SUNNY     71  36  27 NW10G17   29.92F
$$

OKZ018>020-024>031-252200-
CENTRAL OKLAHOMA

CITY           SKY/WX    TMP DP  RH WIND       PRES   REMARKS
OKLAHOMA CITY  PTSUNNY   57  43  59 W7        29.94F
OKC/WILEY POST CLOUDY    58  44  60 NW9       29.94F
OKC/TINKER AFB CLOUDY    55  43  62 NW9       29.93F
STILLWATER     CLOUDY    56  41  57 NW12      29.93F
GUTHRIE        CLOUDY    57  43  59 NW10      29.93F
$$

OKZ008-013-054>072-252200-
NORTHEAST OKLAHOMA

CITY           SKY/WX    TMP DP  RH WIND       PRES   REMARKS
TULSA          CLOUDY    53  45  74 W13       29.92F
TULSA/JONES    CLOUDY    53  43  68 VRB5      29.93F
PONCA CITY     CLOUDY    50  40  68 NW10      29.93S
BARTLESVILLE   CLOUDY    51  41  68 W8        29.93F
MUSKOGEE       CLOUDY    53  45  74 W12       29.95F
$$

OKZ032-040>043-046>053-073>077-252200-
SOUTH CENTRAL/SOUTHEAST OKLAHOMA

CITY           SKY/WX    TMP DP  RH WIND       PRES   REMARKS
ARDMORE/DWNTWN MOSUNNY   63  43  48 N7        29.95F
MCALESTER      CLOUDY    63  45  51 NW12      29.93F
$$




USA.gov is the U.S. government's official web portal to all federal, state and local government web resources and services.